Regional Weather Roundup
Issued by NWS

Home | Current Version | Previous Version | Graphics & Text | Print | Product List | Glossary On
Versions: 1 2 3 4 5 6 7 8 9 10 11 12 13 14 15 16 17 18 19 20 21 22 23 24 25 26 27 28 29 30 31 32 33 34 35 36 37 38 39 40 41 42 43 44 45 46 47 48 49 50
956
ASUS43 KFSD 221502
RWRSD

WEATHER ROUNDUP FOR SOUTH DAKOTA
NATIONAL WEATHER SERVICE SIOUX FALLS SD
1000 AM CDT FRI MAY 22 2015

NOTE: "FAIR" INDICATES FEW OR NO CLOUDS BELOW 12,000 FEET WITH NO
SIGNIFICANT WEATHER AND/OR OBSTRUCTIONS TO VISIBILITY.


SDZ001>005-009-010-012>017-221600-
NORTHWEST AND NORTH CENTRAL SOUTH DAKOTA

CITY           SKY/WX    TMP DP  RH WIND       PRES   REMARKS
BUFFALO          N/A     61  43  51 SE18      30.02F
MOBRIDGE       MOSUNNY   65  41  41 E6        30.14S
$$

SDZ012>016-024>037-041>051-057-063-072>074-221600-
SOUTHWEST AND SOUTH CENTRAL SOUTH DAKOTA

CITY           SKY/WX    TMP DP  RH WIND       PRES   REMARKS
RAPID CTY ARPT CLOUDY    55  46  71 SE13      30.10F
PIERRE         SUNNY     61  43  51 SE6       30.15S
CUSTER         CLOUDY    46  39  76 SE9       30.11S
ELLSWORTH AFB  CLOUDY    55  47  75 S13       30.10S
PHILIP         MOSUNNY   62  46  55 SE8       30.13S
PINE RIDGE     CLOUDY    55  43  63 S16G23    30.11F
WINNER         FAIR      63  40  42 SE8       30.18S
$$

SDZ004>011-016>023-039-040-221600-
NORTHEAST SOUTH DAKOTA

CITY           SKY/WX    TMP DP  RH WIND       PRES   REMARKS
ABERDEEN       SUNNY     65  42  43 SE7       30.18S
WATERTOWN      SUNNY     65  37  35 SE6       30.20S
BROOKINGS      SUNNY     63  37  39 SE7       30.22R
$$

SDZ017-020-022-023-036>040-048>070-221600-
SOUTHEAST SOUTH DAKOTA

CITY           SKY/WX    TMP DP  RH WIND       PRES   REMARKS
SIOUX FALLS    PTSUNNY   67  44  43 SE5       30.21R
HURON          SUNNY     65  39  38 VRB3      30.19R
CHAMBERLAIN    MOSUNNY   62  42  49 SE3       30.18S
MITCHELL       SUNNY     65  43  44 SE5       30.21R
YANKTON        SUNNY     61  39  44 CALM      30.21S
$$

ABBREVIATIONS USED IN REMARKS
   TC - TEMPERATURE IN CELSIUS
  WCI - WIND CHILL INDEX
   HX - HEAT INDEX
  VSB - VISIBILITY




USA.gov is the U.S. government's official web portal to all federal, state and local government web resources and services.